Content
SEND FEEDBACK

Daily
Averages
Monthly
Summary
Philippines

ANGELES CITY, PHILIPPINES


Home > Asia > Philippines
Elevation: 490 feet     Latitude: 15 11N     Longitude: 120 33E

WEATHER
 
SELECT A DAY
Number of Records: 93,527;   Date Range: 2/13/97 - 7/7/14
 
SHARE

PRINT THIS DATA

[ ← Previous Day ]
WEATHER ALMANAC - JANUARY 31, 2013
[ Next Day → ]
[ °C ]   °F
Weather ElementAverageHighLow
Temperature74.7 °F84.2 °F (2:00 pm)66.2 °F (1:00 am)
Dewpoint62.1 °F66.2 °F (6:00 pm)59 °F (5:00 am)
Humidity66.1 %83 % (1:00 am)48 % (12:00 pm)
Barometer30.05 in30.09 in (7:00 am)29.98 in (5:00 pm)
Wind Speed6.3 mph8.1 mph (4:00 am)
Wind Gust28.8 mph (1:00 am)
Weather ElementAverage
Visibility6.1 mi
Wind DirectionWSW (236.4 °)

Weather ElementTotal
Precipitation---
Cooling Degree Days10.2 (Base 65)
Growing Degree Days25.2 (Base 50)
Averaged from 22 records on January 31, 2013
WEATHER CONDITIONS BREAKOUT
WIND DIRECTION BREAKOUT
WEATHER BY HOUR - JANUARY 31, 2013
[ °C ]   °F
Local TimeTemperatureDewpointHumidityBarometerVisibilityWind DirectionWind SpeedGust SpeedPrecipitationEventsConditions
1:00 AM66.2 °F60.8 °F83 %30.06 in6.2 miNW (310°)6.9 mph28.8 mphMostly Cloudy
2:00 AM66.2 °F60.8 °F83 %30.06 in6.2 miWNW (300°)6.9 mphMostly Cloudy
3:00 AM66.2 °F60.8 °F83 %30.04 in6.2 miWNW (300°)6.9 mphMostly Cloudy
4:00 AM66.2 °F60.8 °F83 %30.04 in6.2 miWNW (300°)8.1 mphMostly Cloudy
5:00 AM66.2 °F59.0 °F78 %30.04 in6.2 miWNW (300°)8.1 mphMostly Cloudy
6:00 AM66.2 °F59.0 °F78 %30.06 in6.2 miWNW (300°)8.1 mphMostly Cloudy
7:00 AM68.0 °F59.0 °F73 %30.09 in6.2 miWNW (300°)6.9 mphMostly Cloudy
8:00 AM69.8 °F59.0 °F68 %30.09 in6.2 miWNW (300°)8.1 mphMostly Cloudy
9:00 AM73.4 °F59.0 °F61 %30.09 in6.2 miNW (320°)8.1 mphMostly Cloudy
10:00 AM77.0 °F59.0 °F54 %30.09 in6.2 miNNW (330°)6.9 mphMostly Cloudy
11:00 AM80.6 °F60.8 °F51 %30.09 in6.2 miNorth (360°)6.9 mphMostly Cloudy
12:00 PM82.4 °F60.8 °F48 %30.06 in6.2 miNE (40°)6.9 mphMostly Cloudy
1:00 PM82.4 °F62.6 °F51 %30.04 in6.2 miENE (70°)5.8 mphMostly Cloudy
2:00 PM84.2 °F62.6 °F48 %30.01 in6.2 miENE (70°)8.1 mphMostly Cloudy
3:00 PM82.4 °F60.8 °F48 %30.01 in6.2 miESE (120°)5.8 mphMostly Cloudy
5:00 PM82.4 °F64.4 °F54 %29.98 in6.2 miEast (80°)4.6 mphMostly Cloudy
6:00 PM78.8 °F66.2 °F65 %30.01 in5.0 miESE (110°)4.6 mphMostly Cloudy
7:00 PM78.8 °F66.2 °F65 %30.01 in5.0 miSE (130°)2.3 mphOvercast
8:00 PM78.8 °F66.2 °F65 %30.04 in6.2 miSouth (190°)2.3 mphOvercast
9:00 PM77.0 °F66.2 °F69 %30.04 in6.2 miWNW (300°)4.6 mphOvercast
10:00 PM75.2 °F66.2 °F73 %30.06 in6.2 miNW (310°)4.6 mphOvercast
11:00 PM75.2 °F66.2 °F73 %30.06 in6.2 miNorth (360°)6.9 mphMostly Cloudy
Hourly data recorded from RPLC, located miles away from Angeles City, Philippines







STORIES FROM OUR PARTNERS